| time (UTC) | temp C | wind direction | speed KPH | gust KPH | rain 1hr cm | rain 24hr cm | rain mn cm | humidity % | barometer mb |
| 20260903123427 | 31 | 99 | 6.4 | 11.3 | 0.00 | 0.00 | 0.00 | 56 | 1016.9 |
| 20260903122428 | 31 | 85 | 6.4 | 11.3 | 0.00 | 0.00 | 0.00 | 57 | 1016.7 |
| 20260903121927 | 31 | 105 | 9.7 | 14.5 | 0.00 | 0.00 | 0.00 | 58 | 1016.8 |
| 20260903121428 | 31 | 94 | 3.2 | 12.9 | 0.00 | 0.00 | 0.00 | 56 | 1016.8 |
| 20260903120928 | 31 | 106 | 3.2 | 9.7 | 0.00 | 0.00 | 0.00 | 57 | 1016.8 |
| 20260903120427 | 31 | 81 | 4.8 | 16.1 | 0.00 | 0.00 | 0.00 | 56 | 1016.9 |
| 20260903115427 | 31 | 111 | 6.4 | 9.7 | 0.00 | 0.00 | 0.00 | 58 | 1017.0 |
| 20260903114927 | 31 | 300 | 1.6 | 8.0 | 0.00 | 0.00 | 0.00 | 61 | 1017.0 |
| 20260903114427 | 31 | 294 | 1.6 | 4.8 | 0.00 | 0.00 | 0.00 | 59 | 1017.1 |
| 20260903113427 | 31 | 129 | 6.4 | 11.3 | 0.00 | 0.00 | 0.00 | 57 | 1017.1 |
| 20260903112927 | 31 | 125 | 8.0 | 12.9 | 0.00 | 0.00 | 0.00 | 58 | 1017.2 |
| 20260903112427 | 30 | 134 | 6.4 | 11.3 | 0.00 | 0.00 | 0.00 | 58 | 1017.2 |
| 20260903110929 | 30 | 54 | 8.0 | 12.9 | 0.00 | 0.00 | 0.00 | 61 | 1017.6 |
| 20260903110427 | 30 | 79 | 11.3 | 14.5 | 0.00 | 0.00 | 0.00 | 60 | 1017.6 |
| 20260903105427 | 30 | 81 | 9.7 | 19.3 | 0.00 | 0.00 | 0.00 | 61 | 1017.6 |
| 20260903104927 | 30 | 92 | 4.8 | 11.3 | 0.00 | 0.00 | 0.00 | 61 | 1017.6 |
| 20260903104427 | 30 | 20 | 1.6 | 11.3 | 0.00 | 0.00 | 0.00 | 64 | 1017.7 |
| 20260903103927 | 30 | 133 | 3.2 | 8.0 | 0.00 | 0.00 | 0.00 | 63 | 1017.7 |
| 20260903103426 | 30 | 111 | 4.8 | 11.3 | 0.00 | 0.00 | 0.00 | 63 | 1017.7 |
| 20260903102427 | 29 | 47 | 4.8 | 12.9 | 0.00 | 0.00 | 0.00 | 63 | 1017.9 |
| 20260903101927 | 29 | 82 | 6.4 | 12.9 | 0.00 | 0.00 | 0.00 | 63 | 1017.9 |
| 20260903101427 | 29 | 119 | 1.6 | 8.0 | 0.00 | 0.00 | 0.00 | 64 | 1018.0 |
| 20260903100927 | 29 | 101 | 8.0 | 14.5 | 0.00 | 0.00 | 0.00 | 64 | 1018.1 |
| 20260903095427 | 28 | 58 | 6.4 | 11.3 | 0.00 | 0.00 | 0.00 | 65 | 1018.3 |
| 20260903094426 | 28 | 81 | 4.8 | 11.3 | 0.00 | 0.00 | 0.00 | 63 | 1018.3 |
| 20260903093927 | 28 | 134 | 4.8 | 9.7 | 0.00 | 0.00 | 0.00 | 65 | 1018.4 |
| 20260903093426 | 28 | 57 | 1.6 | 4.8 | 0.00 | 0.00 | 0.00 | 66 | 1018.5 |
| 20260903092927 | 28 | 118 | 4.8 | 11.3 | 0.00 | 0.00 | 0.00 | 65 | 1018.5 |
| 20260903092427 | 28 | 136 | 4.8 | 11.3 | 0.00 | 0.00 | 0.00 | 64 | 1018.5 |
| 20260903091927 | 28 | 110 | 11.3 | 14.5 | 0.00 | 0.00 | 0.00 | 64 | 1018.6 |
| 20260903091427 | 28 | 64 | 6.4 | 11.3 | 0.00 | 0.00 | 0.00 | 66 | 1018.7 |
| 20260903090926 | 28 | 107 | 4.8 | 9.7 | 0.00 | 0.00 | 0.00 | 64 | 1018.7 |
| 20260903085927 | 27 | 132 | 4.8 | 11.3 | 0.00 | 0.00 | 0.00 | 66 | 1018.7 |
| 20260903084926 | 27 | 126 | 4.8 | 11.3 | 0.00 | 0.00 | 0.00 | 69 | 1018.5 |
| 20260903084430 | 27 | 115 | 4.8 | 11.3 | 0.00 | 0.00 | 0.00 | 67 | 1018.5 |
| 20260903083427 | 27 | 46 | 3.2 | 9.7 | 0.00 | 0.00 | 0.00 | 68 | 1018.5 |
| 20260903082926 | 27 | 89 | 8.0 | 14.5 | 0.00 | 0.00 | 0.00 | 68 | 1018.5 |
| 20260903082427 | 26 | 105 | 8.0 | 12.9 | 0.00 | 0.00 | 0.00 | 67 | 1018.4 |
| 20260903081942 | 26 | 93 | 6.4 | 12.9 | 0.00 | 0.00 | 0.00 | 69 | 1018.3 |
| 20260903081427 | 26 | 107 | 6.4 | 14.5 | 0.00 | 0.00 | 0.00 | 68 | 1018.3 |
| 20260903080926 | 26 | 74 | 9.7 | 16.1 | 0.00 | 0.00 | 0.00 | 68 | 1018.3 |
| 20260903080427 | 26 | 61 | 8.0 | 14.5 | 0.00 | 0.00 | 0.00 | 70 | 1018.4 |
| 20260903075927 | 25 | 89 | 6.4 | 12.9 | 0.00 | 0.00 | 0.00 | 73 | 1018.4 |
| 20260903074927 | 25 | 67 | 4.8 | 8.0 | 0.00 | 0.00 | 0.00 | 77 | 1018.3 |
| 20260903074426 | 25 | 83 | 4.8 | 8.0 | 0.00 | 0.00 | 0.00 | 77 | 1018.3 |
| 20260903073927 | 25 | 80 | 3.2 | 8.0 | 0.00 | 0.00 | 0.00 | 77 | 1018.2 |
| 20260903073426 | 25 | 81 | 3.2 | 9.7 | 0.00 | 0.00 | 0.00 | 77 | 1018.2 |
| 20260903072926 | 25 | 26 | 3.2 | 4.8 | 0.00 | 0.00 | 0.00 | 78 | 1018.2 |
| 20260903072427 | 24 | 102 | 4.8 | 8.0 | 0.00 | 0.00 | 0.00 | 79 | 1018.2 |
| 20260903071926 | 23 | 119 | 3.2 | 4.8 | 0.00 | 0.00 | 0.00 | 81 | 1018.2 |
| 20260903071429 | 23 | 102 | 3.2 | 4.8 | 0.00 | 0.00 | 0.00 | 80 | 1018.1 |
| 20260903070430 | 23 | 93 | 3.2 | 8.0 | 0.00 | 0.00 | 0.00 | 82 | 1018.1 |
| 20260903065926 | 23 | 90 | 3.2 | 8.0 | 0.00 | 0.00 | 0.00 | 83 | 1018.1 |
| 20260903065426 | 23 | 76 | 3.2 | 8.0 | 0.00 | 0.00 | 0.00 | 82 | 1018.1 |
| 20260903064933 | 23 | 69 | 3.2 | 4.8 | 0.00 | 0.00 | 0.00 | 82 | 1018.1 |
| 20260903064426 | 23 | 68 | 3.2 | 4.8 | 0.00 | 0.00 | 0.00 | 83 | 1018.1 |
| 20260903063428 | 22 | 75 | 1.6 | 4.8 | 0.00 | 0.00 | 0.00 | 83 | 1018.0 |
| 20260903062427 | 22 | 55 | 3.2 | 4.8 | 0.00 | 0.00 | 0.00 | 83 | 1018.0 |
| 20260903061926 | 22 | 55 | 1.6 | 3.2 | 0.00 | 0.00 | 0.00 | 83 | 1018.0 |
| 20260903060926 | 22 | 53 | 3.2 | 4.8 | 0.00 | 0.00 | 0.00 | 83 | 1018.0 |
| 20260903060426 | 22 | 53 | 1.6 | 3.2 | 0.00 | 0.00 | 0.00 | 84 | 1018.0 |
| 20260903055929 | 21 | 53 | 1.6 | 3.2 | 0.00 | 0.00 | 0.00 | 85 | 1018.0 |
| 20260903055427 | 21 | 44 | 3.2 | 4.8 | 0.00 | 0.00 | 0.00 | 87 | 1017.8 |
| 20260903054427 | 21 | 13 | 1.6 | 3.2 | 0.00 | 0.00 | 0.00 | 89 | 1017.7 |
| 20260903053927 | 20 | 347 | 0.0 | 0.0 | 0.00 | 0.00 | 0.00 | 89 | 1017.6 |
| 20260903053426 | 20 | 347 | 0.0 | 1.6 | 0.00 | 0.00 | 0.00 | 89 | 1017.6 |
| 20260903052927 | 20 | 347 | 0.0 | 3.2 | 0.00 | 0.00 | 0.00 | 90 | 1017.5 |
| 20260903052430 | 20 | 347 | 0.0 | 0.0 | 0.00 | 0.00 | 0.00 | 91 | 1017.4 |
| 20260903051928 | 20 | 347 | 0.0 | 0.0 | 0.00 | 0.00 | 0.00 | 91 | 1017.4 |
| 20260903051426 | 20 | 347 | 0.0 | 0.0 | 0.00 | 0.00 | 0.00 | 91 | 1017.4 |
| 20260903050926 | 20 | 330 | 0.0 | 0.0 | 0.00 | 0.00 | 0.00 | 91 | 1017.3 |
| 20260903045426 | 20 | 355 | 0.0 | 0.0 | 0.00 | 0.00 | 0.00 | 90 | 1017.2 |
| 20260903044926 | 20 | 0 | 0.0 | 0.0 | 0.00 | 0.00 | 0.00 | 90 | 1017.1 |
| 20260903044429 | 20 | 0 | 0.0 | 1.6 | 0.00 | 0.00 | 0.00 | 90 | 1017.0 |
| 20260903043926 | 20 | 0 | 1.6 | 3.2 | 0.00 | 0.00 | 0.00 | 90 | 1017.0 |
| 20260903043426 | 20 | 0 | 1.6 | 4.8 | 0.00 | 0.00 | 0.00 | 90 | 1016.9 |
| 20260903042427 | 20 | 57 | 0.0 | 3.2 | 0.00 | 0.00 | 0.00 | 90 | 1016.9 |
| 20260903041931 | 20 | 57 | 0.0 | 0.0 | 0.00 | 0.00 | 0.00 | 90 | 1016.9 |
| 20260903041426 | 20 | 57 | 0.0 | 0.0 | 0.00 | 0.00 | 0.00 | 89 | 1016.8 |
| 20260903040942 | 20 | 57 | 0.0 | 1.6 | 0.00 | 0.00 | 0.00 | 89 | 1016.9 |
| 20260903035925 | 20 | 57 | 1.6 | 3.2 | 0.00 | 0.00 | 0.00 | 90 | 1016.9 |
| 20260903035426 | 20 | 57 | 1.6 | 3.2 | 0.00 | 0.00 | 0.00 | 89 | 1016.9 |
| 20260903034927 | 20 | 57 | 3.2 | 4.8 | 0.00 | 0.00 | 0.00 | 89 | 1016.8 |
| 20260903033933 | 20 | 57 | 3.2 | 8.0 | 0.00 | 0.00 | 0.00 | 90 | 1016.9 |
| 20260903033427 | 20 | 53 | 4.8 | 4.8 | 0.00 | 0.00 | 0.00 | 90 | 1016.8 |
| 20260903032941 | 20 | 67 | 3.2 | 4.8 | 0.00 | 0.00 | 0.00 | 91 | 1016.8 |
| 20260903032426 | 20 | 71 | 4.8 | 8.0 | 0.00 | 0.00 | 0.00 | 91 | 1016.8 |
| 20260903031426 | 20 | 74 | 0.0 | 0.0 | 0.00 | 0.00 | 0.00 | 91 | 1016.7 |
| 20260903030926 | 20 | 74 | 0.0 | 0.0 | 0.00 | 0.00 | 0.00 | 91 | 1016.8 |
| 20260903030426 | 20 | 74 | 0.0 | 0.0 | 0.00 | 0.00 | 0.00 | 91 | 1016.8 |
| 20260903025925 | 20 | 74 | 0.0 | 0.0 | 0.00 | 0.00 | 0.00 | 91 | 1016.8 |
| 20260903025425 | 20 | 74 | 0.0 | 0.0 | 0.00 | 0.00 | 0.00 | 91 | 1016.8 |
| 20260903024927 | 20 | 74 | 0.0 | 0.0 | 0.00 | 0.00 | 0.00 | 90 | 1016.8 |
| 20260903024426 | 20 | 83 | 0.0 | 0.0 | 0.00 | 0.00 | 0.00 | 90 | 1016.8 |
| 20260903023927 | 20 | 83 | 0.0 | 0.0 | 0.00 | 0.00 | 0.00 | 90 | 1016.8 |
| 20260903023427 | 20 | 83 | 0.0 | 0.0 | 0.00 | 0.00 | 0.00 | 90 | 1016.8 |
| 20260903022942 | 20 | 56 | 0.0 | 0.0 | 0.00 | 0.00 | 0.00 | 90 | 1016.7 |
| 20260903022426 | 20 | 56 | 0.0 | 0.0 | 0.00 | 0.00 | 0.00 | 90 | 1016.7 |
| 20260903021926 | 20 | 56 | 0.0 | 0.0 | 0.00 | 0.00 | 0.00 | 90 | 1016.8 |
| 20260903020925 | 20 | 56 | 0.0 | 0.0 | 0.00 | 0.00 | 0.00 | 89 | 1016.8 |
| 20260903020425 | 20 | 56 | 0.0 | 0.0 | 0.00 | 0.00 | 0.00 | 89 | 1016.7 |
| 20260903015926 | 20 | 56 | 0.0 | 0.0 | 0.00 | 0.00 | 0.00 | 89 | 1016.7 |
| 20260903014926 | 20 | 56 | 3.2 | 4.8 | 0.00 | 0.00 | 0.00 | 89 | 1016.7 |
| 20260903014425 | 20 | 56 | 3.2 | 4.8 | 0.00 | 0.00 | 0.00 | 88 | 1016.7 |
| 20260903013426 | 20 | 57 | 1.6 | 3.2 | 0.00 | 0.00 | 0.00 | 88 | 1016.7 |
| 20260903012925 | 20 | 57 | 1.6 | 3.2 | 0.00 | 0.00 | 0.00 | 88 | 1016.7 |
| 20260903012427 | 20 | 40 | 1.6 | 3.2 | 0.00 | 0.00 | 0.00 | 88 | 1016.6 |
| 20260903011425 | 20 | 66 | 3.2 | 4.8 | 0.00 | 0.00 | 0.00 | 87 | 1016.6 |
| 20260903010930 | 20 | 66 | 0.0 | 4.8 | 0.00 | 0.00 | 0.00 | 87 | 1016.7 |
| 20260903010428 | 20 | 66 | 3.2 | 4.8 | 0.00 | 0.00 | 0.00 | 87 | 1016.7 |
| 20260903005925 | 21 | 66 | 4.8 | 4.8 | 0.00 | 0.00 | 0.00 | 87 | 1016.7 |
| 20260903004425 | 21 | 66 | 1.6 | 4.8 | 0.00 | 0.00 | 0.00 | 86 | 1016.6 |
| 20260903003925 | 21 | 66 | 3.2 | 4.8 | 0.00 | 0.00 | 0.00 | 86 | 1016.6 |
| 20260903003426 | 21 | 66 | 3.2 | 4.8 | 0.00 | 0.00 | 0.00 | 85 | 1016.5 |
| 20260903001426 | 21 | 55 | 3.2 | 4.8 | 0.00 | 0.00 | 0.00 | 85 | 1016.5 |
| 20260903000926 | 21 | 55 | 1.6 | 3.2 | 0.00 | 0.00 | 0.00 | 85 | 1016.5 |
| 20260903000426 | 21 | 56 | 1.6 | 3.2 | 0.00 | 0.00 | 0.00 | 84 | 1016.5 |
| 20260902235925 | 21 | 56 | 1.6 | 3.2 | 0.00 | 0.00 | 0.00 | 84 | 1016.4 |
| 20260902234925 | 21 | 55 | 3.2 | 4.8 | 0.00 | 0.00 | 0.00 | 85 | 1016.4 |
| 20260902234425 | 21 | 56 | 3.2 | 4.8 | 0.00 | 0.00 | 0.00 | 86 | 1016.3 |
| 20260902232425 | 22 | 56 | 3.2 | 4.8 | 0.00 | 0.00 | 0.00 | 85 | 1016.4 |
| 20260902231925 | 22 | 56 | 3.2 | 4.8 | 0.00 | 0.00 | 0.00 | 86 | 1016.4 |
| 20260902231426 | 21 | 56 | 3.2 | 4.8 | 0.00 | 0.00 | 0.00 | 86 | 1016.4 |
| 20260902230425 | 22 | 37 | 3.2 | 4.8 | 0.00 | 0.00 | 0.00 | 86 | 1016.4 |
| 20260902225925 | 22 | 37 | 0.0 | 3.2 | 0.00 | 0.00 | 0.00 | 85 | 1016.3 |
| 20260902225425 | 22 | 37 | 1.6 | 4.8 | 0.00 | 0.00 | 0.00 | 84 | 1016.3 |
| 20260902224927 | 22 | 37 | 4.8 | 4.8 | 0.00 | 0.00 | 0.00 | 84 | 1016.3 |
| 20260902224440 | 22 | 38 | 1.6 | 4.8 | 0.00 | 0.00 | 0.00 | 84 | 1016.3 |
| 20260902223425 | 22 | 16 | 4.8 | 8.0 | 0.00 | 0.00 | 0.00 | 84 | 1016.2 |
| 20260902221926 | 22 | 180 | 1.6 | 3.2 | 0.00 | 0.00 | 0.00 | 83 | 1016.1 |
| 20260902221425 | 22 | 180 | 0.0 | 0.0 | 0.00 | 0.00 | 0.00 | 82 | 1016.1 |
| 20260902220925 | 22 | 180 | 0.0 | 0.0 | 0.00 | 0.00 | 0.00 | 82 | 1016.1 |
| 20260902215925 | 23 | 180 | 0.0 | 0.0 | 0.00 | 0.00 | 0.00 | 81 | 1016.1 |
| 20260902215425 | 23 | 180 | 1.6 | 3.2 | 0.00 | 0.00 | 0.00 | 80 | 1016.0 |
| 20260902214940 | 23 | 180 | 0.0 | 0.0 | 0.00 | 0.00 | 0.00 | 80 | 1016.0 |
| 20260902214427 | 23 | 180 | 1.6 | 3.2 | 0.00 | 0.00 | 0.00 | 81 | 1016.0 |
| 20260902213925 | 23 | 180 | 1.6 | 3.2 | 0.00 | 0.00 | 0.00 | 81 | 1016.0 |
| 20260902212425 | 23 | 211 | 0.0 | 0.0 | 0.00 | 0.00 | 0.00 | 80 | 1015.8 |
| 20260902211924 | 23 | 211 | 0.0 | 0.0 | 0.00 | 0.00 | 0.00 | 80 | 1015.8 |
| 20260902211425 | 23 | 211 | 0.0 | 0.0 | 0.00 | 0.00 | 0.00 | 79 | 1015.7 |
| 20260902210924 | 23 | 211 | 0.0 | 0.0 | 0.00 | 0.00 | 0.00 | 79 | 1015.7 |
| 20260902210424 | 23 | 211 | 0.0 | 0.0 | 0.00 | 0.00 | 0.00 | 78 | 1015.7 |
| 20260902205925 | 23 | 211 | 0.0 | 0.0 | 0.00 | 0.00 | 0.00 | 78 | 1015.7 |
| 20260902205425 | 23 | 211 | 0.0 | 0.0 | 0.00 | 0.00 | 0.00 | 78 | 1015.7 |
| 20260902204924 | 23 | 211 | 0.0 | 3.2 | 0.00 | 0.00 | 0.00 | 77 | 1015.7 |
| 20260902202924 | 23 | 202 | 3.2 | 4.8 | 0.00 | 0.00 | 0.00 | 77 | 1015.5 |
| 20260902202424 | 24 | 138 | 0.0 | 0.0 | 0.00 | 0.00 | 0.00 | 77 | 1015.5 |
| 20260902201924 | 24 | 138 | 0.0 | 0.0 | 0.00 | 0.00 | 0.00 | 77 | 1015.5 |
| 20260902200932 | 23 | 138 | 0.0 | 1.6 | 0.00 | 0.00 | 0.00 | 78 | 1015.5 |
| 20260902195925 | 23 | 138 | 3.2 | 4.8 | 0.00 | 0.00 | 0.00 | 76 | 1015.5 |
| 20260902195424 | 23 | 138 | 1.6 | 4.8 | 0.00 | 0.00 | 0.00 | 75 | 1015.5 |
| 20260902194926 | 24 | 142 | 1.6 | 3.2 | 0.00 | 0.00 | 0.00 | 73 | 1015.5 |
| 20260902193924 | 25 | 296 | 0.0 | 0.0 | 0.00 | 0.00 | 0.00 | 72 | 1015.4 |
| 20260902192925 | 25 | 296 | 0.0 | 0.0 | 0.00 | 0.00 | 0.00 | 72 | 1015.4 |
| 20260902192424 | 25 | 296 | 0.0 | 0.0 | 0.00 | 0.00 | 0.00 | 73 | 1015.4 |
| 20260902191925 | 25 | 296 | 0.0 | 0.0 | 0.00 | 0.00 | 0.00 | 73 | 1015.3 |
| 20260902190940 | 25 | 296 | 0.0 | 0.0 | 0.00 | 0.00 | 0.00 | 72 | 1015.2 |
| 20260902185925 | 25 | 296 | 0.0 | 0.0 | 0.00 | 0.00 | 0.00 | 71 | 1015.2 |
| 20260902184926 | 25 | 296 | 0.0 | 0.0 | 0.00 | 0.00 | 0.00 | 72 | 1015.1 |
| 20260902183925 | 26 | 296 | 0.0 | 0.0 | 0.00 | 0.00 | 0.00 | 70 | 1014.9 |
| 20260902182927 | 26 | 296 | 0.0 | 0.0 | 0.00 | 0.00 | 0.00 | 69 | 1014.8 |
| 20260902182425 | 26 | 296 | 0.0 | 0.0 | 0.00 | 0.00 | 0.00 | 68 | 1014.8 |
| 20260902181924 | 26 | 296 | 0.0 | 0.0 | 0.00 | 0.00 | 0.00 | 68 | 1014.7 |
| 20260902181424 | 26 | 296 | 0.0 | 0.0 | 0.00 | 0.00 | 0.00 | 66 | 1014.6 |
| 20260902180941 | 27 | 296 | 0.0 | 0.0 | 0.00 | 0.00 | 0.00 | 66 | 1014.6 |
| 20260902175924 | 27 | 296 | 0.0 | 0.0 | 0.00 | 0.00 | 0.00 | 65 | 1014.5 |
| 20260902175426 | 27 | 296 | 0.0 | 1.6 | 0.00 | 0.00 | 0.00 | 64 | 1014.5 |
| 20260902174924 | 28 | 296 | 0.0 | 1.6 | 0.00 | 0.00 | 0.00 | 62 | 1014.5 |
| 20260902173925 | 29 | 296 | 3.2 | 3.2 | 0.00 | 0.00 | 0.00 | 55 | 1014.4 |
| 20260902173424 | 29 | 296 | 1.6 | 3.2 | 0.00 | 0.00 | 0.00 | 55 | 1014.4 |
| 20260902172425 | 30 | 341 | 1.6 | 4.8 | 0.00 | 0.00 | 0.00 | 55 | 1014.3 |
| 20260902171924 | 30 | 301 | 3.2 | 4.8 | 0.00 | 0.00 | 0.00 | 53 | 1014.2 |
| 20260902171426 | 30 | 303 | 3.2 | 8.0 | 0.00 | 0.00 | 0.00 | 53 | 1014.2 |
| 20260902170424 | 30 | 299 | 3.2 | 8.0 | 0.00 | 0.00 | 0.00 | 53 | 1014.3 |
| 20260902165931 | 31 | 280 | 3.2 | 4.8 | 0.00 | 0.00 | 0.00 | 51 | 1014.3 |
| 20260902165424 | 31 | 273 | 3.2 | 4.8 | 0.00 | 0.00 | 0.00 | 50 | 1014.4 |
| 20260902164939 | 31 | 301 | 3.2 | 4.8 | 0.00 | 0.00 | 0.00 | 49 | 1014.5 |
| 20260902163923 | 31 | 300 | 3.2 | 4.8 | 0.00 | 0.00 | 0.00 | 50 | 1014.4 |
| 20260902163431 | 31 | 227 | 3.2 | 8.0 | 0.00 | 0.00 | 0.00 | 50 | 1014.5 |
| 20260902162923 | 31 | 223 | 8.0 | 11.3 | 0.00 | 0.00 | 0.00 | 49 | 1014.4 |
| 20260902162424 | 31 | 194 | 4.8 | 8.0 | 0.00 | 0.00 | 0.00 | 48 | 1014.4 |
| 20260902161424 | 31 | 298 | 8.0 | 11.3 | 0.00 | 0.00 | 0.00 | 48 | 1014.4 |
| 20260902160924 | 31 | 314 | 6.4 | 11.3 | 0.00 | 0.00 | 0.00 | 49 | 1014.5 |
| 20260902160424 | 31 | 305 | 6.4 | 8.0 | 0.00 | 0.00 | 0.00 | 49 | 1014.5 |
| 20260902155928 | 31 | 315 | 3.2 | 4.8 | 0.00 | 0.00 | 0.00 | 50 | 1014.4 |
| 20260902155425 | 31 | 267 | 1.6 | 4.8 | 0.00 | 0.00 | 0.00 | 49 | 1014.4 |
| 20260902154924 | 31 | 307 | 6.4 | 9.7 | 0.00 | 0.00 | 0.00 | 48 | 1014.5 |
| 20260902154423 | 31 | 290 | 8.0 | 14.5 | 0.00 | 0.00 | 0.00 | 49 | 1014.5 |
| 20260902153924 | 31 | 314 | 4.8 | 12.9 | 0.00 | 0.00 | 0.00 | 48 | 1014.6 |
| 20260902153431 | 31 | 286 | 8.0 | 12.9 | 0.00 | 0.00 | 0.00 | 48 | 1014.6 |
| 20260902152923 | 32 | 265 | 8.0 | 12.9 | 0.00 | 0.00 | 0.00 | 47 | 1014.7 |
| 20260902151924 | 32 | 264 | 3.2 | 11.3 | 0.00 | 0.00 | 0.00 | 49 | 1014.7 |
| 20260902151423 | 31 | 348 | 1.6 | 11.3 | 0.00 | 0.00 | 0.00 | 52 | 1014.8 |
| 20260902150926 | 31 | 1 | 3.2 | 4.8 | 0.00 | 0.00 | 0.00 | 50 | 1014.8 |
| 20260902145423 | 32 | 272 | 4.8 | 11.3 | 0.00 | 0.00 | 0.00 | 49 | 1014.8 |
| 20260902144924 | 32 | 281 | 9.7 | 14.5 | 0.00 | 0.00 | 0.00 | 48 | 1014.9 |
| 20260902143925 | 31 | 279 | 9.7 | 16.1 | 0.00 | 0.00 | 0.00 | 51 | 1015.0 |
| 20260902143423 | 32 | 270 | 6.4 | 14.5 | 0.00 | 0.00 | 0.00 | 51 | 1015.0 |
| 20260902142927 | 31 | 236 | 6.4 | 11.3 | 0.00 | 0.00 | 0.00 | 51 | 1015.1 |
| 20260902141923 | 31 | 246 | 1.6 | 4.8 | 0.00 | 0.00 | 0.00 | 52 | 1015.2 |
| 20260902141441 | 32 | 261 | 8.0 | 14.5 | 0.00 | 0.00 | 0.00 | 52 | 1015.2 |
| 20260902140924 | 31 | 236 | 9.7 | 14.5 | 0.00 | 0.00 | 0.00 | 52 | 1015.2 |
| 20260902135926 | 31 | 247 | 9.7 | 16.1 | 0.00 | 0.00 | 0.00 | 51 | 1015.4 |
| 20260902135423 | 32 | 46 | 1.6 | 4.8 | 0.00 | 0.00 | 0.00 | 53 | 1015.4 |
| 20260902134923 | 32 | 293 | 3.2 | 4.8 | 0.00 | 0.00 | 0.00 | 52 | 1015.4 |
| 20260902133924 | 32 | 205 | 4.8 | 11.3 | 0.00 | 0.00 | 0.00 | 52 | 1015.6 |
| 20260902133423 | 31 | 253 | 4.8 | 9.7 | 0.00 | 0.00 | 0.00 | 53 | 1015.6 |
| 20260902132925 | 32 | 211 | 8.0 | 12.9 | 0.00 | 0.00 | 0.00 | 53 | 1015.7 |
| 20260902131424 | 31 | 302 | 1.6 | 4.8 | 0.00 | 0.00 | 0.00 | 54 | 1015.9 |
| 20260902130924 | 31 | 333 | 8.0 | 11.3 | 0.00 | 0.00 | 0.00 | 55 | 1015.9 |
| 20260902130423 | 30 | 136 | 3.2 | 9.7 | 0.00 | 0.00 | 0.00 | 57 | 1016.0 |
| 20260902125923 | 30 | 77 | 4.8 | 8.0 | 0.00 | 0.00 | 0.00 | 57 | 1016.0 |
| 20260902124925 | 30 | 96 | 4.8 | 8.0 | 0.00 | 0.00 | 0.00 | 59 | 1016.1 |
| 20260902124424 | 30 | 126 | 1.6 | 8.0 | 0.00 | 0.00 | 0.00 | 58 | 1016.2 |